My Profile
  1. Member Settings
  2. My Devices
  3. Sign Out
        More Settings
      Elev 47 ft, 31.870 °N 116.645 °W

      Ensenada, MX

      Summary

      Temperature (°F)MaxAverageMin
      Max Temperature8269.557
      Avg Temperature7358.0350.75
      Min Temperature6847.9739
      Precipitation (in)MaxAverageMinSum
      Precipitation0000
      Dew Point (°F)MaxAverageMin
      Dew Point49.4831.492.88
      Wind (mph)MaxAverageMin
      Wind3215.539
      Gust Wind3730.9521
      Sea Level Pressure (in)MaxAverageMin
      Sea Level Pressure29.7129.5729.42

      Daily Observations

      DateTemp High/LowDew Pt High/LowHumidityWindMax WindWind GustPressurePrecip.Condition
      12/1/2020 77 °F / 46 °F 39 °F / 14 °F 27 % 14 mph - 29.53 in 0 in
      12/2/2020 81 °F / 46 °F 23 °F / 5 °F 16 % 17 mph - 29.53 in 0 in
      12/3/2020 72 °F / 50 °F 45 °F / 1 °F 18 % 25 mph - 29.65 in 0 in
      12/4/2020 72 °F / 39 °F 36 °F / 3 °F 22 % 13 mph - 29.65 in 0 in
      12/5/2020 82 °F / 46 °F 45 °F / 0 °F 29 % 16 mph - 29.7 in 0 in
      12/6/2020 72 °F / 48 °F 52 °F / 1 °F 43 % 14 mph - 29.63 in 0 in
      12/7/2020 75 °F / 45 °F 46 °F / 7 °F 29 % 17 mph - 29.47 in 0 in
      12/8/2020 79 °F / 57 °F 34 °F / 7 °F 12 % 24 mph - 29.51 in 0 in
      12/9/2020 73 °F / 48 °F 52 °F / 16 °F 49 % 16 mph - 29.5 in 0 in
      12/10/2020 64 °F / 46 °F 46 °F / 36 °F 61 % 12 mph - 29.52 in 0 in
      12/11/2020 63 °F / 45 °F 48 °F / 39 °F 73 % 12 mph - 29.59 in 0 in
      12/12/2020 64 °F / 45 °F 54 °F / 39 °F 81 % 13 mph - 29.57 in 0 in
      12/13/2020 68 °F / 45 °F 52 °F / 16 °F 54 % 22 mph - 29.67 in 0 in
      12/14/2020 61 °F / 48 °F 54 °F / 32 °F 77 % 9 mph - 29.57 in 0 in
      12/15/2020 68 °F / 46 °F 45 °F / 19 °F 49 % 10 mph - 29.65 in 0 in
      12/16/2020 72 °F / 46 °F 45 °F / 12 °F 32 % 12 mph - 29.59 in 0 in
      12/17/2020 63 °F / 45 °F 55 °F / 23 °F 66 % 14 mph - 29.5 in 0 in
      12/18/2020 64 °F / 46 °F 50 °F / 25 °F 72 % 9 mph - 29.63 in 0 in
      12/19/2020 73 °F / 52 °F 37 °F / 18 °F 28 % 12 mph - 29.71 in 0 in
      12/20/2020 79 °F / 45 °F 32 °F / 14 °F 23 % 12 mph - 29.59 in 0 in
      12/21/2020 81 °F / 52 °F 28 °F / 14 °F 20 % 15 mph - 29.47 in 0 in
      12/22/2020 68 °F / 46 °F 52 °F / 21 °F 57 % 9 mph - 29.54 in 0 in
      12/23/2020 73 °F / 41 °F 48 °F / -2 °F 37 % 20 mph - 29.63 in 0 in
      12/24/2020 70 °F / 61 °F 19 °F / -2 °F 9 % 23 mph - 29.68 in 0 in
      12/25/2020 73 °F / 50 °F 43 °F / 5 °F 29 % 16 mph - 29.61 in 0 in
      12/26/2020 66 °F / 45 °F 54 °F / 28 °F 64 % 15 mph - 29.6 in 0 in
      12/27/2020 63 °F / 48 °F 52 °F / 45 °F 78 % 8 mph - 29.45 in 0 in
      12/28/2020 59 °F / 50 °F 52 °F / 45 °F 83 % 32 mph - 29.44 in 0 in
      12/29/2020 63 °F / 46 °F 50 °F / 41 °F 82 % 18 mph - 29.57 in 0 in
      12/30/2020 66 °F / 41 °F 45 °F / 16 °F 59 % 13 mph - 29.67 in 0 in
      12/31/2020 61 °F / 46 °F 50 °F / 32 °F 71 % 13 mph - 29.47 in 0 in
      essentialaccessibility.com
      We recognize our responsibility to use data and technology for good. We may use or share your data with our data vendors. Take control of your data.
      Glossary